GW0518 Weather Reports


time (UTC)temp
C
wind
direction
speed
KPH
gust
KPH
rain 1hr
cm
rain 24hr
cm
rain mn
cm
humidity
%
barometer
mb
20260509135301 11 180 8.0 14.5 0.00 0.05 0.00 91 1008.8
20260509134801 10 173 6.4 14.5 0.00 0.05 0.00 91 1008.8
20260509134525 10 173 6.4 14.5 0.00 0.10 0.00 91 1008.8
20260509133801 10 177 6.4 14.5 0.00 0.15 0.00 91 1008.8
20260509133520 10 198 6.4 17.7 0.00 0.18 0.00 91 1008.9
20260509133026 10 191 6.4 17.7 0.00 0.20 0.00 91 1009.0
20260509132301 10 253 4.8 14.5 0.00 0.20 0.00 91 1009.1
20260509132024 10 226 4.8 16.1 0.00 0.20 0.00 92 1009.1
20260509131301 10 196 4.8 16.1 0.00 0.23 0.00 91 1009.0
20260509130802 10 209 4.8 11.3 0.00 0.23 0.00 91 1009.1
20260509130300 10 184 6.4 14.5 0.00 0.23 0.00 92 1009.1
20260509125801 9 190 8.0 19.3 0.00 0.23 0.00 91 1009.1
20260509125301 9 206 8.0 20.9 0.00 0.23 0.00 91 1009.0
20260509125029 9 179 9.7 20.9 0.00 0.23 0.00 91 1008.9
20260509124301 9 220 9.7 22.5 0.00 0.23 0.00 91 1008.9
20260509123801 9 160 8.0 22.5 0.00 0.23 0.00 91 1008.9
20260509123526 9 203 6.4 20.9 0.00 0.23 0.00 91 1009.0
20260509122801 9 205 4.8 20.9 0.00 0.23 0.00 92 1009.0
20260509122301 9 195 4.8 16.1 0.00 0.23 0.00 91 1009.0
20260509121301 8 194 4.8 14.5 0.00 0.23 0.00 91 1009.1
20260509120800 8 190 4.8 14.5 0.00 0.23 0.00 91 1009.2
20260509120301 8 199 3.2 14.5 0.00 0.23 0.00 91 1009.3
20260509120026 8 186 3.2 9.7 0.00 0.23 0.00 91 1009.4
20260509115301 8 186 4.8 9.7 0.00 0.23 0.00 92 1009.3
20260509114801 8 187 3.2 9.7 0.00 0.23 0.00 92 1009.4
20260509114300 7 186 3.2 12.9 0.00 0.23 0.00 91 1009.4
20260509114021 7 186 3.2 12.9 0.00 0.23 0.00 92 1009.5
20260509113300 7 84 1.6 4.8 0.00 0.23 0.00 91 1009.5
20260509113022 7 84 1.6 6.4 0.00 0.23 0.00 91 1009.5
20260509112306 7 84 1.6 6.4 0.00 0.23 0.00 91 1009.4
20260509111300 6 83 0.0 3.2 0.00 0.23 0.00 91 1009.5
20260509110026 6 83 0.0 1.6 0.00 0.23 0.00 91 1009.4
20260509105305 6 83 0.0 1.6 0.00 0.23 0.00 91 1009.4
20260509105021 6 83 0.0 4.8 0.00 0.23 0.00 91 1009.5
20260509104300 6 83 0.0 4.8 0.00 0.23 0.00 90 1009.4
20260509103801 6 83 1.6 3.2 0.00 0.23 0.00 90 1009.4
20260509103301 6 83 1.6 3.2 0.00 0.23 0.00 90 1009.4
20260509102801 5 83 1.6 3.2 0.00 0.23 0.00 90 1009.3
20260509102301 5 83 1.6 4.8 0.00 0.23 0.00 90 1009.4
20260509101801 5 83 1.6 4.8 0.00 0.23 0.00 90 1009.4
20260509101301 5 83 0.0 4.8 0.00 0.23 0.00 90 1009.5
20260509101017 5 83 0.0 0.0 0.00 0.23 0.00 90 1009.5
20260509100531 5 83 0.0 0.0 0.00 0.23 0.00 90 1009.5
20260509095803 5 83 0.0 0.0 0.00 0.23 0.00 90 1009.4
20260509095301 5 83 0.0 0.0 0.00 0.23 0.00 90 1009.4
20260509094801 5 83 0.0 0.0 0.00 0.23 0.00 90 1009.4
20260509094301 5 83 0.0 0.0 0.00 0.23 0.00 90 1009.3
20260509094028 5 82 1.6 6.4 0.00 0.23 0.00 90 1009.2
20260509093302 5 83 1.6 6.4 0.00 0.23 0.00 90 1009.1
20260509092801 5 82 0.0 1.6 0.00 0.23 0.00 90 1009.1
20260509092532 5 82 0.0 6.4 0.00 0.23 0.00 89 1009.1
20260509091801 5 82 1.6 6.4 0.00 0.23 0.00 90 1009.0
20260509091300 5 82 1.6 6.4 0.00 0.23 0.00 90 1009.0
20260509091026 5 82 1.6 6.4 0.00 0.23 0.00 90 1009.1
20260509090301 5 81 1.6 4.8 0.00 0.23 0.00 90 1009.2
20260509090020 4 81 1.6 6.4 0.00 0.23 0.00 90 1009.3
20260509085301 4 81 1.6 6.4 0.00 0.23 0.00 90 1009.4
20260509084801 4 81 1.6 4.8 0.00 0.23 0.00 89 1009.5
20260509084301 4 81 0.0 4.8 0.00 0.23 0.00 89 1009.5
20260509083801 3 81 0.0 0.0 0.00 0.23 0.00 89 1009.6
20260509083300 3 81 0.0 0.0 0.00 0.23 0.00 89 1009.8
20260509082801 3 81 0.0 0.0 0.00 0.23 0.00 89 1009.8
20260509082306 3 81 0.0 0.0 0.00 0.23 0.00 88 1009.9
20260509081802 3 81 0.0 0.0 0.00 0.23 0.00 88 1009.9
20260509081301 3 81 0.0 0.0 0.00 0.23 0.00 88 1009.9
20260509080801 3 81 0.0 0.0 0.00 0.23 0.00 88 1009.8
20260509080522 3 81 0.0 0.0 0.00 0.23 0.00 87 1010.0
20260509075801 3 81 0.0 0.0 0.00 0.23 0.00 87 1010.0
20260509075534 3 81 0.0 0.0 0.00 0.23 0.00 87 1009.9
20260509075022 3 81 0.0 0.0 0.00 0.23 0.00 87 1010.0
20260509074300 3 81 0.0 0.0 0.00 0.23 0.00 86 1010.0
20260509073801 3 81 0.0 0.0 0.00 0.23 0.00 86 1010.0
20260509073522 3 81 0.0 0.0 0.00 0.23 0.00 86 1010.0
20260509072801 4 81 0.0 0.0 0.00 0.23 0.00 86 1010.1
20260509072306 4 81 0.0 0.0 0.00 0.23 0.00 86 1010.1
20260509071801 4 81 0.0 0.0 0.00 0.25 0.00 86 1010.2
20260509071301 4 81 0.0 0.0 0.00 0.25 0.00 86 1010.2
20260509070801 4 81 0.0 0.0 0.00 0.25 0.00 86 1010.1
20260509070021 4 81 0.0 0.0 0.00 0.25 0.00 86 1010.2
20260509065305 4 81 0.0 0.0 0.00 0.25 0.00 86 1010.2
20260509064801 5 81 0.0 0.0 0.00 0.25 0.00 86 1010.2
20260509064522 5 81 0.0 0.0 0.00 0.25 0.00 86 1010.2
20260509063800 5 81 0.0 0.0 0.00 0.25 0.00 86 1010.4
20260509063300 5 81 0.0 0.0 0.00 0.25 0.00 86 1010.4
20260509062801 5 81 0.0 0.0 0.00 0.25 0.00 87 1010.3
20260509062300 5 81 0.0 0.0 0.00 0.25 0.00 87 1010.5
20260509061801 5 81 0.0 0.0 0.00 0.25 0.00 87 1010.5
20260509061301 5 81 0.0 0.0 0.00 0.25 0.00 87 1010.5
20260509060801 5 81 0.0 0.0 0.00 0.25 0.00 87 1010.6
20260509060300 5 81 0.0 0.0 0.00 0.25 0.00 88 1010.7
20260509055801 5 81 0.0 0.0 0.00 0.28 0.00 89 1010.8
20260509055301 5 81 0.0 0.0 0.00 0.30 0.00 89 1010.9
20260509054802 4 81 0.0 0.0 0.00 0.30 0.00 89 1010.9
20260509054301 4 81 0.0 0.0 0.00 0.30 0.00 90 1011.0
20260509054017 4 81 0.0 0.0 0.00 0.30 0.00 90 1011.0
20260509053301 4 81 0.0 0.0 0.00 0.30 0.00 89 1011.1
20260509052801 4 81 0.0 0.0 0.00 0.30 0.00 89 1011.2
20260509052301 4 81 0.0 0.0 0.00 0.30 0.00 89 1011.2
20260509051805 4 81 0.0 0.0 0.00 0.30 0.00 89 1011.3
20260509051304 4 81 0.0 0.0 0.00 0.30 0.00 89 1011.3
20260509050801 4 81 0.0 0.0 0.00 0.30 0.00 89 1011.4
20260509050301 3 81 0.0 0.0 0.00 0.30 0.00 89 1011.4
20260509045802 3 81 0.0 0.0 0.00 0.30 0.00 89 1011.3
20260509045301 3 81 0.0 0.0 0.00 0.30 0.00 89 1011.4
20260509044801 3 81 0.0 0.0 0.00 0.30 0.00 89 1011.4
20260509044300 3 81 0.0 0.0 0.00 0.30 0.00 89 1011.5
20260509043801 3 81 0.0 0.0 0.00 0.30 0.00 89 1011.5
20260509043300 3 81 0.0 0.0 0.00 0.30 0.00 89 1011.5
20260509042801 3 81 0.0 0.0 0.00 0.30 0.00 88 1011.5
20260509042300 3 81 0.0 1.6 0.00 0.30 0.00 88 1011.6
20260509042017 3 81 0.0 1.6 0.00 0.30 0.00 88 1011.5
20260509041302 3 81 0.0 3.2 0.00 0.30 0.00 87 1011.7
20260509040801 3 81 0.0 3.2 0.00 0.30 0.00 87 1011.7
20260509035801 3 81 0.0 0.0 0.00 0.30 0.30 86 1011.6
20260509035301 3 81 0.0 0.0 0.00 0.30 0.30 86 1011.6
20260509034801 3 81 0.0 0.0 0.00 0.30 0.30 85 1011.7
20260509034301 3 81 0.0 0.0 0.00 0.30 0.30 85 1011.7
20260509033300 3 81 0.0 0.0 0.00 0.30 0.30 85 1011.9
20260509033024 3 81 0.0 0.0 0.00 0.30 0.30 85 1011.7
20260509032523 3 81 0.0 0.0 0.00 0.30 0.30 84 1011.7
20260509031801 3 81 0.0 0.0 0.00 0.30 0.30 84 1011.7
20260509031525 3 81 0.0 0.0 0.00 0.30 0.30 83 1011.7
20260509030800 3 81 0.0 0.0 0.00 0.30 0.30 82 1011.7
20260509030301 3 81 0.0 0.0 0.00 0.30 0.30 82 1011.7
20260509025759 3 81 0.0 0.0 0.00 0.30 0.30 81 1011.7
20260509025259 3 81 0.0 0.0 0.00 0.30 0.30 81 1011.7
20260509024759 3 81 0.0 0.0 0.00 0.30 0.30 81 1011.9
20260509024300 3 81 0.0 0.0 0.00 0.30 0.30 80 1011.9
20260509023259 4 81 0.0 0.0 0.00 0.30 0.30 80 1012.0
20260509022759 4 81 0.0 0.0 0.00 0.30 0.30 80 1011.9
20260509022259 4 81 0.0 0.0 0.00 0.30 0.30 80 1012.0
20260509021801 4 81 0.0 0.0 0.00 0.30 0.30 79 1011.9
20260509021259 4 81 0.0 0.0 0.00 0.30 0.30 78 1011.9
20260509020759 5 81 0.0 0.0 0.00 0.30 0.30 78 1011.9
20260509020259 5 81 0.0 0.0 0.00 0.30 0.30 78 1012.0
20260509020019 5 81 0.0 0.0 0.00 0.30 0.30 77 1012.0
20260509015259 5 81 0.0 0.0 0.00 0.30 0.30 77 1011.9
20260509014759 5 81 0.0 0.0 0.00 0.30 0.30 77 1011.9
20260509014259 5 81 0.0 1.6 0.00 0.30 0.30 77 1011.7
20260509014027 5 81 0.0 1.6 0.00 0.30 0.30 76 1011.7
20260509013521 6 81 0.0 0.0 0.00 0.30 0.30 75 1011.7
20260509013022 6 81 0.0 0.0 0.00 0.30 0.30 73 1011.5
20260509012259 6 81 0.0 0.0 0.00 0.30 0.30 72 1011.4
20260509011759 6 81 0.0 0.0 0.00 0.30 0.30 71 1011.3
20260509011017 6 81 0.0 0.0 0.00 0.30 0.30 69 1011.2
20260509010259 7 81 0.0 0.0 0.00 0.30 0.30 68 1011.1
20260509010018 7 81 0.0 0.0 0.00 0.30 0.30 68 1011.1
20260509005300 7 81 0.0 0.0 0.00 0.30 0.30 67 1010.9
20260509004759 7 81 0.0 0.0 0.00 0.30 0.30 67 1010.9
20260509004259 8 81 0.0 0.0 0.00 0.30 0.30 66 1010.9
20260509003759 8 81 0.0 1.6 0.00 0.30 0.30 65 1011.0
20260509003259 8 81 0.0 1.6 0.00 0.30 0.30 64 1010.9
20260509003026 8 81 0.0 1.6 0.00 0.30 0.30 62 1010.8
20260509002259 9 81 0.0 0.0 0.00 0.30 0.30 60 1010.8
20260509002021 10 81 0.0 0.0 0.00 0.30 0.30 59 1010.8
20260509001258 10 81 0.0 3.2 0.00 0.30 0.30 57 1010.8
20260509000759 10 81 0.0 3.2 0.00 0.30 0.30 55 1010.7
20260509000259 11 81 0.0 0.0 0.00 0.30 0.30 53 1010.7
20260508235759 11 81 0.0 0.0 0.00 0.30 0.30 52 1010.7
20260508235259 11 81 0.0 3.2 0.00 0.30 0.30 52 1010.7
20260508234759 11 81 1.6 4.8 0.00 0.30 0.30 51 1010.7
20260508234524 12 81 0.0 4.8 0.00 0.30 0.30 47 1010.6
20260508233759 12 81 0.0 3.2 0.00 0.30 0.30 46 1010.6
20260508233300 12 81 1.6 3.2 0.00 0.30 0.30 45 1010.5
20260508232758 12 81 1.6 6.4 0.00 0.30 0.30 47 1010.5
20260508232259 12 81 1.6 6.4 0.00 0.30 0.30 46 1010.5
20260508231759 12 81 1.6 6.4 0.00 0.30 0.30 46 1010.5
20260508231257 12 80 1.6 6.4 0.00 0.30 0.30 46 1010.5
20260508230757 12 80 1.6 8.0 0.00 0.30 0.30 45 1010.5
20260508230257 12 27 3.2 8.0 0.00 0.30 0.30 47 1010.4
20260508225757 12 30 4.8 8.0 0.00 0.30 0.30 45 1010.4
20260508225518 12 40 4.8 9.7 0.00 0.30 0.30 46 1010.4
20260508224757 12 40 3.2 9.7 0.00 0.30 0.30 47 1010.4
20260508224257 12 55 3.2 6.4 0.00 0.30 0.30 48 1010.5
20260508224018 12 55 3.2 8.0 0.00 0.30 0.30 48 1010.5
20260508223522 13 55 3.2 12.9 0.00 0.30 0.30 48 1010.4
20260508222757 13 10 3.2 12.9 0.00 0.30 0.30 48 1010.5
20260508222257 12 51 3.2 6.4 0.00 0.30 0.30 50 1010.6
20260508221757 12 51 1.6 6.4 0.00 0.30 0.30 50 1010.7
20260508221257 12 51 3.2 8.0 0.00 0.30 0.30 50 1010.7
20260508220756 12 51 4.8 8.0 0.00 0.30 0.30 49 1010.6
20260508220257 12 79 4.8 11.3 0.00 0.30 0.30 51 1010.7
20260508215758 12 79 6.4 12.9 0.00 0.30 0.30 51 1010.7
20260508215520 12 355 4.8 16.1 0.00 0.30 0.30 51 1010.8
20260508214757 12 0 3.2 16.1 0.00 0.30 0.30 52 1010.9
20260508214257 12 290 3.2 8.0 0.00 0.30 0.30 49 1010.9
20260508213757 12 290 3.2 12.9 0.00 0.30 0.30 50 1010.9
20260508213257 12 300 3.2 12.9 0.00 0.30 0.30 49 1011.0
20260508212757 12 272 3.2 9.7 0.00 0.30 0.30 51 1010.9
20260508212257 12 347 3.2 6.4 0.00 0.30 0.30 52 1011.0
20260508211757 12 264 4.8 14.5 0.00 0.30 0.30 50 1010.9
20260508211257 12 269 6.4 14.5 0.00 0.30 0.30 52 1011.0
20260508210757 12 257 6.4 14.5 0.00 0.30 0.30 50 1011.0
20260508210257 12 222 4.8 14.5 0.00 0.30 0.30 52 1011.0
20260508205757 12 263 3.2 12.9 0.00 0.30 0.30 53 1011.0
20260508205257 12 333 6.4 16.1 0.00 0.30 0.30 53 1011.0
20260508204757 12 204 8.0 16.1 0.00 0.30 0.30 52 1011.1
20260508204257 12 22 8.0 16.1 0.00 0.30 0.30 52 1011.1
20260508203757 12 303 6.4 16.1 0.00 0.30 0.30 54 1011.1
20260508203257 12 44 6.4 14.5 0.00 0.30 0.30 54 1011.2
20260508202756 12 105 6.4 14.5 0.00 0.30 0.30 54 1011.2
20260508202519 12 23 4.8 16.1 0.00 0.30 0.30 57 1011.1
20260508201756 11 34 4.8 16.1 0.00 0.30 0.30 56 1011.2
20260508201257 11 289 6.4 16.1 0.00 0.30 0.30 55 1011.2
20260508200757 11 298 6.4 16.1 0.00 0.30 0.30 55 1011.2
20260508200257 11 244 4.8 12.9 0.00 0.30 0.30 58 1011.3
20260508195756 11 328 6.4 16.1 0.00 0.30 0.30 58 1011.4
20260508195256 11 315 6.4 16.1 0.00 0.30 0.30 57 1011.4
20260508194801 12 262 6.4 14.5 0.00 0.30 0.30 63 1011.4
20260508194523 12 321 6.4 20.9 0.00 0.30 0.30 58 1011.5
20260508193757 12 238 6.4 20.9 0.00 0.30 0.30 57 1011.6
20260508193257 11 355 8.0 19.3 0.00 0.30 0.30 61 1011.6
20260508193023 11 284 8.0 24.1 0.00 0.30 0.30 59 1011.9
20260508192257 11 304 4.8 24.1 0.00 0.30 0.30 61 1011.6
20260508191756 11 221 6.4 16.1 0.00 0.30 0.30 65 1011.6
20260508191257 11 266 6.4 20.9 0.00 0.30 0.30 65 1011.7
20260508190756 11 294 8.0 20.9 0.00 0.30 0.30 66 1011.6
20260508190256 11 250 8.0 20.9 0.00 0.30 0.30 63 1011.7
20260508185757 11 245 6.4 20.9 0.00 0.30 0.30 66 1011.7
20260508185257 11 292 6.4 20.9 0.00 0.30 0.30 66 1011.6
20260508185015 10 300 6.4 14.5 0.00 0.30 0.30 67 1011.7
20260508184256 10 255 8.0 16.1 0.00 0.30 0.30 67 1012.0
20260508183757 10 223 8.0 22.5 0.00 0.30 0.30 65 1012.1
20260508182757 10 254 4.8 12.9 0.00 0.30 0.30 69 1012.1
20260508182256 10 248 4.8 12.9 0.00 0.30 0.30 71 1012.3
20260508181756 9 255 4.8 14.5 0.00 0.30 0.30 69 1012.2
20260508181256 9 276 4.8 14.5 0.00 0.30 0.30 70 1012.4
20260508180756 9 257 6.4 16.1 0.00 0.30 0.30 71 1012.4
20260508180257 9 240 6.4 16.1 0.00 0.30 0.30 70 1012.5
20260508175756 9 273 6.4 19.3 0.00 0.30 0.30 72 1012.3
20260508175256 9 237 6.4 19.3 0.00 0.30 0.30 72 1012.4
20260508174758 9 250 6.4 14.5 0.00 0.30 0.30 73 1012.4
20260508174256 9 266 6.4 17.7 0.00 0.30 0.30 72 1012.4
20260508173757 9 300 6.4 17.7 0.00 0.30 0.30 73 1012.3
20260508173256 9 227 6.4 17.7 0.00 0.30 0.30 72 1012.4
20260508172757 9 301 6.4 20.9 0.00 0.30 0.30 73 1012.4
20260508172256 9 229 6.4 20.9 0.00 0.30 0.30 76 1012.5
20260508171756 9 277 6.4 20.9 0.00 0.30 0.30 74 1012.6
20260508171257 9 288 8.0 24.1 0.00 0.30 0.30 73 1012.6
20260508170756 9 325 9.7 24.1 0.00 0.30 0.30 78 1012.7
20260508170520 8 215 8.0 22.5 0.00 0.30 0.30 78 1012.8
20260508165754 8 252 8.0 25.7 0.00 0.30 0.30 78 1012.9
20260508165253 8 225 9.7 25.7 0.00 0.30 0.30 76 1012.9
20260508164753 9 253 8.0 22.5 0.00 0.30 0.30 79 1013.0
20260508164252 8 223 9.7 20.9 0.00 0.30 0.30 79 1013.0
20260508163752 8 228 9.7 20.9 0.00 0.30 0.30 81 1013.0
20260508163250 8 232 8.0 17.7 0.00 0.30 0.30 83 1012.9
20260508162750 8 217 8.0 16.1 0.00 0.30 0.30 82 1013.0
20260508162250 8 207 6.4 14.5 0.00 0.30 0.30 83 1013.0
20260508161748 8 208 6.4 14.5 0.00 0.30 0.30 85 1013.0
20260508161248 7 193 8.0 17.7 0.00 0.30 0.30 84 1013.1
20260508160748 7 194 9.7 17.7 0.00 0.30 0.30 83 1013.0
20260508160248 7 313 8.0 17.7 0.00 0.30 0.30 83 1013.1
20260508155748 7 238 6.4 14.5 0.00 0.30 0.30 88 1013.0
20260508155249 7 253 6.4 16.1 0.00 0.30 0.30 87 1013.1
20260508154509 7 255 6.4 16.1 0.03 0.30 0.30 89 1013.0
20260508153748 6 245 6.4 16.1 0.03 0.30 0.30 89 1013.0
20260508153248 6 211 6.4 14.5 0.05 0.30 0.30 91 1013.0
20260508152748 6 240 8.0 14.5 0.05 0.30 0.30 91 1012.9
20260508152249 6 229 6.4 14.5 0.05 0.30 0.30 91 1013.1
20260508151748 6 243 4.8 11.3 0.05 0.30 0.30 92 1013.1
20260508151248 5 243 4.8 11.3 0.05 0.30 0.30 92 1013.1
20260508151016 5 196 4.8 11.3 0.05 0.30 0.30 93 1013.1
20260508150508 5 245 4.8 8.0 0.05 0.30 0.30 92 1013.0
20260508145748 4 246 4.8 11.3 0.05 0.30 0.30 92 1013.1
20260508145248 4 253 3.2 11.3 0.05 0.30 0.30 92 1013.2
20260508144748 4 291 1.6 6.4 0.03 0.28 0.28 92 1013.2
20260508144248 4 314 1.6 8.0 0.08 0.28 0.28 92 1013.2
20260508143748 4 315 3.2 14.5 0.13 0.28 0.28 92 1013.3
20260508143249 4 321 3.2 14.5 0.13 0.25 0.25 92 1013.3
20260508142748 4 296 3.2 12.9 0.15 0.25 0.25 92 1013.4
20260508142510 4 307 4.8 16.1 0.15 0.25 0.25 92 1013.4
20260508141748 4 275 4.8 16.1 0.15 0.25 0.25 92 1013.3
20260508141248 4 304 4.8 14.5 0.18 0.25 0.25 92 1013.2
20260508140749 4 259 3.2 12.9 0.18 0.25 0.25 92 1013.0
20260508140248 4 228 3.2 9.7 0.18 0.25 0.25 92 1012.9
20260508135748 4 228 4.8 12.9 0.18 0.25 0.25 92 1012.9